| time (UTC) | temp F | wind direction | speed MPH | gust MPH | rain 1hr in | rain 24hr in | rain mn in | humidity % | barometer mb |
| 20260507042454 | 48 | 107 | 0.0 | 0.0 | 0.00 | 0.31 | 0.00 | 91 | 992.5 |
| 20260507041953 | 48 | 107 | 0.0 | 0.0 | 0.00 | 0.31 | 0.00 | 91 | 992.8 |
| 20260507041453 | 48 | 107 | 0.0 | 0.0 | 0.00 | 0.31 | 0.00 | 90 | 993.1 |
| 20260507040953 | 49 | 147 | 0.0 | 0.0 | 0.00 | 0.31 | 0.00 | 91 | 992.8 |
| 20260507040453 | 49 | 147 | 0.0 | 0.0 | 0.00 | 0.31 | 0.00 | 90 | 992.8 |
| 20260507035953 | 49 | 147 | 0.0 | 0.0 | 0.00 | 0.31 | 0.31 | 91 | 992.8 |
| 20260507035448 | 49 | 147 | 0.0 | 3.0 | 0.00 | 0.31 | 0.31 | 91 | 992.7 |
| 20260507034943 | 49 | 147 | 1.0 | 3.0 | 0.02 | 0.31 | 0.31 | 91 | 992.7 |
| 20260507034443 | 50 | 146 | 0.0 | 2.0 | 0.03 | 0.31 | 0.31 | 91 | 992.6 |
| 20260507033944 | 50 | 133 | 0.0 | 1.0 | 0.03 | 0.31 | 0.31 | 91 | 992.5 |
| 20260507033440 | 50 | 133 | 0.0 | 1.0 | 0.03 | 0.31 | 0.31 | 91 | 992.5 |
| 20260507032941 | 50 | 133 | 0.0 | 1.0 | 0.03 | 0.31 | 0.31 | 91 | 992.5 |
| 20260507032441 | 50 | 133 | 0.0 | 0.0 | 0.04 | 0.31 | 0.31 | 91 | 992.4 |
| 20260507031938 | 51 | 133 | 0.0 | 1.0 | 0.04 | 0.31 | 0.31 | 91 | 992.5 |
| 20260507031438 | 51 | 133 | 0.0 | 1.0 | 0.04 | 0.31 | 0.31 | 91 | 992.4 |
| 20260507030936 | 51 | 133 | 0.0 | 0.0 | 0.04 | 0.31 | 0.31 | 91 | 992.4 |
| 20260507030434 | 51 | 133 | 0.0 | 0.0 | 0.04 | 0.31 | 0.31 | 91 | 992.5 |
| 20260507025934 | 51 | 133 | 0.0 | 2.0 | 0.04 | 0.31 | 0.31 | 91 | 992.5 |
| 20260507025434 | 51 | 133 | 0.0 | 2.0 | 0.03 | 0.30 | 0.31 | 91 | 992.6 |
| 20260507024934 | 51 | 133 | 0.0 | 2.0 | 0.02 | 0.29 | 0.29 | 91 | 992.6 |
| 20260507024434 | 51 | 133 | 0.0 | 1.0 | 0.02 | 0.28 | 0.28 | 91 | 992.5 |
| 20260507023935 | 51 | 133 | 0.0 | 4.0 | 0.02 | 0.28 | 0.28 | 90 | 992.5 |
| 20260507023431 | 51 | 133 | 0.0 | 4.0 | 0.02 | 0.28 | 0.28 | 90 | 992.6 |
| 20260507022930 | 52 | 56 | 1.0 | 3.0 | 0.03 | 0.28 | 0.28 | 90 | 992.5 |
| 20260507021929 | 53 | 5 | 1.0 | 5.0 | 0.03 | 0.27 | 0.27 | 89 | 992.4 |
| 20260507021430 | 53 | 107 | 1.0 | 4.0 | 0.03 | 0.27 | 0.27 | 90 | 992.3 |
| 20260507020930 | 54 | 27 | 1.0 | 3.0 | 0.03 | 0.27 | 0.27 | 90 | 992.0 |
| 20260507015928 | 55 | 66 | 0.0 | 6.0 | 0.10 | 0.27 | 0.27 | 91 | 991.7 |
| 20260507015430 | 55 | 309 | 0.0 | 0.0 | 0.12 | 0.27 | 0.27 | 91 | 991.6 |
| 20260507014925 | 55 | 309 | 0.0 | 0.0 | 0.12 | 0.27 | 0.27 | 91 | 991.6 |
| 20260507014425 | 56 | 309 | 0.0 | 0.0 | 0.11 | 0.26 | 0.27 | 91 | 991.4 |
| 20260507013924 | 56 | 309 | 0.0 | 1.0 | 0.11 | 0.26 | 0.26 | 91 | 991.3 |
| 20260507013425 | 56 | 309 | 0.0 | 1.0 | 0.12 | 0.26 | 0.26 | 91 | 991.3 |
| 20260507012425 | 56 | 309 | 0.0 | 0.0 | 0.11 | 0.25 | 0.25 | 91 | 991.2 |
| 20260507011923 | 56 | 309 | 0.0 | 2.0 | 0.10 | 0.24 | 0.24 | 91 | 991.3 |
| 20260507011421 | 57 | 309 | 0.0 | 2.0 | 0.10 | 0.24 | 0.24 | 90 | 991.1 |
| 20260507005919 | 58 | 309 | 1.0 | 4.0 | 0.03 | 0.17 | 0.19 | 91 | 991.1 |
| 20260507005419 | 59 | 309 | 1.0 | 3.0 | 0.01 | 0.15 | 0.15 | 92 | 990.9 |
| 20260507004913 | 59 | 211 | 0.0 | 0.0 | 0.01 | 0.15 | 0.15 | 92 | 990.4 |
| 20260507004407 | 59 | 211 | 0.0 | 0.0 | 0.01 | 0.15 | 0.15 | 92 | 990.3 |
| 20260507003901 | 59 | 211 | 0.0 | 0.0 | 0.01 | 0.15 | 0.15 | 92 | 990.2 |
| 20260507003355 | 59 | 211 | 0.0 | 0.0 | 0.00 | 0.14 | 0.14 | 92 | 990.2 |
| 20260507002849 | 59 | 211 | 0.0 | 0.0 | 0.00 | 0.14 | 0.14 | 92 | 990.0 |
| 20260507002343 | 59 | 211 | 0.0 | 0.0 | 0.00 | 0.14 | 0.14 | 92 | 990.1 |
| 20260507001838 | 59 | 211 | 0.0 | 0.0 | 0.00 | 0.14 | 0.14 | 92 | 990.0 |
| 20260507001331 | 59 | 211 | 0.0 | 0.0 | 0.00 | 0.14 | 0.14 | 92 | 990.0 |
| 20260507000825 | 59 | 211 | 0.0 | 0.0 | 0.00 | 0.14 | 0.14 | 92 | 990.0 |
| 20260506235813 | 59 | 211 | 0.0 | 0.0 | 0.00 | 0.14 | 0.14 | 91 | 989.9 |
| 20260506234801 | 59 | 211 | 0.0 | 0.0 | 0.00 | 0.14 | 0.14 | 91 | 989.8 |
| 20260506234254 | 59 | 211 | 0.0 | 0.0 | 0.00 | 0.14 | 0.14 | 91 | 989.8 |
| 20260506233748 | 59 | 211 | 0.0 | 0.0 | 0.00 | 0.14 | 0.14 | 91 | 989.6 |
| 20260506233242 | 59 | 211 | 0.0 | 0.0 | 0.00 | 0.14 | 0.14 | 91 | 989.6 |
| 20260506232736 | 59 | 211 | 0.0 | 0.0 | 0.00 | 0.14 | 0.14 | 91 | 989.6 |
| 20260506232230 | 59 | 211 | 0.0 | 0.0 | 0.00 | 0.14 | 0.14 | 91 | 989.7 |
| 20260506231724 | 60 | 211 | 0.0 | 0.0 | 0.00 | 0.14 | 0.14 | 91 | 989.8 |
| 20260506231218 | 60 | 211 | 0.0 | 0.0 | 0.00 | 0.14 | 0.14 | 91 | 989.9 |
| 20260506230207 | 60 | 211 | 0.0 | 0.0 | 0.00 | 0.14 | 0.14 | 91 | 989.9 |
| 20260506225155 | 60 | 211 | 0.0 | 1.0 | 0.00 | 0.14 | 0.14 | 91 | 989.8 |
| 20260506224143 | 60 | 211 | 0.0 | 3.0 | 0.00 | 0.14 | 0.14 | 91 | 989.8 |
| 20260506223637 | 60 | 211 | 0.0 | 3.0 | 0.00 | 0.14 | 0.14 | 91 | 989.8 |
| 20260506222624 | 60 | 209 | 0.0 | 2.0 | 0.00 | 0.14 | 0.14 | 91 | 989.9 |
| 20260506222118 | 60 | 209 | 0.0 | 2.0 | 0.00 | 0.14 | 0.14 | 91 | 989.9 |
| 20260506221613 | 60 | 207 | 0.0 | 2.0 | 0.00 | 0.14 | 0.14 | 91 | 989.9 |
| 20260506221107 | 60 | 252 | 0.0 | 2.0 | 0.00 | 0.14 | 0.14 | 91 | 989.9 |
| 20260506220601 | 60 | 252 | 0.0 | 2.0 | 0.00 | 0.14 | 0.14 | 90 | 990.0 |
| 20260506220055 | 60 | 252 | 1.0 | 2.0 | 0.00 | 0.14 | 0.14 | 90 | 990.1 |
| 20260506215548 | 61 | 252 | 0.0 | 2.0 | 0.00 | 0.14 | 0.14 | 90 | 990.0 |
| 20260506215042 | 61 | 211 | 0.0 | 3.0 | 0.00 | 0.14 | 0.14 | 91 | 990.0 |
| 20260506214537 | 61 | 211 | 0.0 | 3.0 | 0.00 | 0.14 | 0.14 | 91 | 990.0 |
| 20260506214031 | 61 | 211 | 0.0 | 4.0 | 0.00 | 0.14 | 0.14 | 91 | 990.0 |
| 20260506213525 | 62 | 211 | 0.0 | 4.0 | 0.00 | 0.14 | 0.14 | 91 | 990.0 |
| 20260506212512 | 62 | 184 | 0.0 | 1.0 | 0.00 | 0.14 | 0.14 | 91 | 990.1 |
| 20260506212006 | 62 | 184 | 0.0 | 1.0 | 0.00 | 0.14 | 0.14 | 91 | 990.0 |
| 20260506211501 | 62 | 184 | 0.0 | 1.0 | 0.01 | 0.14 | 0.14 | 91 | 990.2 |
| 20260506205437 | 62 | 185 | 0.0 | 1.0 | 0.02 | 0.14 | 0.14 | 91 | 990.3 |
| 20260506204931 | 62 | 185 | 0.0 | 1.0 | 0.03 | 0.14 | 0.14 | 91 | 990.4 |
| 20260506204424 | 62 | 185 | 0.0 | 1.0 | 0.04 | 0.14 | 0.14 | 91 | 990.3 |
| 20260506203918 | 62 | 172 | 0.0 | 1.0 | 0.05 | 0.14 | 0.14 | 91 | 990.4 |
| 20260506203413 | 62 | 172 | 0.0 | 3.0 | 0.05 | 0.14 | 0.14 | 91 | 990.4 |
| 20260506202401 | 62 | 62 | 0.0 | 2.0 | 0.07 | 0.14 | 0.14 | 91 | 990.5 |
| 20260506201854 | 62 | 62 | 0.0 | 3.0 | 0.06 | 0.13 | 0.13 | 91 | 990.6 |
| 20260506200843 | 62 | 57 | 0.0 | 3.0 | 0.06 | 0.13 | 0.13 | 91 | 990.5 |
| 20260506195831 | 62 | 200 | 0.0 | 1.0 | 0.05 | 0.12 | 0.12 | 91 | 990.6 |
| 20260506195324 | 62 | 200 | 0.0 | 0.0 | 0.04 | 0.11 | 0.11 | 91 | 990.6 |
| 20260506194819 | 62 | 200 | 0.0 | 0.0 | 0.04 | 0.11 | 0.11 | 90 | 990.7 |
| 20260506194312 | 62 | 200 | 0.0 | 0.0 | 0.04 | 0.10 | 0.10 | 90 | 990.8 |
| 20260506192801 | 62 | 200 | 0.0 | 1.0 | 0.03 | 0.08 | 0.08 | 90 | 990.9 |
| 20260506192257 | 62 | 200 | 0.0 | 1.0 | 0.02 | 0.07 | 0.07 | 90 | 991.0 |
| 20260506191755 | 62 | 200 | 0.0 | 1.0 | 0.02 | 0.07 | 0.07 | 90 | 991.0 |
| 20260506190756 | 62 | 200 | 0.0 | 1.0 | 0.03 | 0.07 | 0.07 | 90 | 990.9 |
| 20260506190257 | 62 | 200 | 0.0 | 1.0 | 0.03 | 0.07 | 0.07 | 90 | 990.8 |
| 20260506185756 | 62 | 200 | 0.0 | 1.0 | 0.04 | 0.07 | 0.07 | 90 | 990.8 |
| 20260506185256 | 62 | 200 | 0.0 | 1.0 | 0.04 | 0.07 | 0.07 | 89 | 991.0 |
| 20260506184756 | 62 | 200 | 0.0 | 1.0 | 0.05 | 0.07 | 0.07 | 89 | 991.3 |
| 20260506184257 | 62 | 200 | 0.0 | 1.0 | 0.04 | 0.06 | 0.06 | 89 | 991.4 |
| 20260506183752 | 62 | 200 | 0.0 | 1.0 | 0.04 | 0.06 | 0.06 | 89 | 991.5 |
| 20260506182752 | 62 | 200 | 0.0 | 1.0 | 0.04 | 0.05 | 0.05 | 88 | 991.9 |
| 20260506182253 | 62 | 200 | 0.0 | 1.0 | 0.05 | 0.05 | 0.05 | 88 | 992.0 |
| 20260506181752 | 62 | 200 | 0.0 | 1.0 | 0.05 | 0.05 | 0.05 | 88 | 992.0 |
| 20260506181251 | 62 | 200 | 0.0 | 1.0 | 0.04 | 0.04 | 0.04 | 88 | 992.0 |
| 20260506180753 | 62 | 200 | 0.0 | 2.0 | 0.04 | 0.04 | 0.04 | 87 | 992.0 |
| 20260506180253 | 63 | 200 | 0.0 | 2.0 | 0.04 | 0.04 | 0.04 | 87 | 992.1 |
| 20260506175753 | 63 | 200 | 0.0 | 0.0 | 0.03 | 0.03 | 0.03 | 87 | 992.1 |
| 20260506174752 | 63 | 200 | 0.0 | 1.0 | 0.02 | 0.02 | 0.03 | 86 | 992.4 |
| 20260506174249 | 64 | 200 | 0.0 | 1.0 | 0.02 | 0.02 | 0.02 | 85 | 992.4 |
| 20260506173752 | 64 | 200 | 0.0 | 0.0 | 0.02 | 0.02 | 0.02 | 85 | 992.4 |
| 20260506173247 | 64 | 200 | 0.0 | 0.0 | 0.01 | 0.01 | 0.01 | 84 | 992.5 |
| 20260506172746 | 65 | 200 | 0.0 | 1.0 | 0.01 | 0.01 | 0.01 | 83 | 992.4 |
| 20260506172247 | 65 | 200 | 0.0 | 2.0 | 0.00 | 0.00 | 0.00 | 82 | 992.4 |
| 20260506171745 | 66 | 200 | 0.0 | 2.0 | 0.00 | 0.00 | 0.00 | 81 | 992.3 |
| 20260506171244 | 66 | 200 | 0.0 | 2.0 | 0.00 | 0.00 | 0.00 | 80 | 992.3 |
| 20260506170245 | 67 | 248 | 0.0 | 2.0 | 0.00 | 0.00 | 0.00 | 77 | 992.3 |
| 20260506165241 | 68 | 230 | 0.0 | 2.0 | 0.00 | 0.00 | 0.00 | 74 | 992.1 |
| 20260506164741 | 68 | 230 | 1.0 | 3.0 | 0.00 | 0.00 | 0.00 | 73 | 992.1 |
| 20260506163231 | 69 | 225 | 0.0 | 2.0 | 0.00 | 0.00 | 0.00 | 71 | 992.2 |
| 20260506162725 | 69 | 225 | 0.0 | 2.0 | 0.00 | 0.00 | 0.00 | 72 | 992.3 |
| 20260506162219 | 69 | 225 | 1.0 | 3.0 | 0.00 | 0.00 | 0.00 | 72 | 992.4 |
| 20260506161207 | 68 | 288 | 1.0 | 3.0 | 0.00 | 0.00 | 0.00 | 72 | 992.6 |
| 20260506160701 | 68 | 211 | 1.0 | 5.0 | 0.00 | 0.00 | 0.00 | 74 | 992.6 |
| 20260506160155 | 68 | 290 | 0.0 | 5.0 | 0.00 | 0.00 | 0.00 | 74 | 992.6 |
| 20260506155649 | 68 | 249 | 0.0 | 2.0 | 0.00 | 0.00 | 0.00 | 75 | 992.7 |
| 20260506155142 | 67 | 249 | 1.0 | 2.0 | 0.00 | 0.00 | 0.00 | 75 | 992.9 |
| 20260506154637 | 67 | 249 | 1.0 | 2.0 | 0.00 | 0.00 | 0.00 | 75 | 993.0 |
| 20260506154130 | 67 | 194 | 1.0 | 3.0 | 0.00 | 0.00 | 0.00 | 74 | 993.1 |
| 20260506153625 | 68 | 74 | 1.0 | 3.0 | 0.00 | 0.00 | 0.00 | 75 | 993.2 |
| 20260506153119 | 68 | 284 | 0.0 | 3.0 | 0.00 | 0.00 | 0.00 | 74 | 993.2 |
| 20260506152612 | 68 | 284 | 1.0 | 3.0 | 0.00 | 0.00 | 0.00 | 74 | 993.3 |
| 20260506151601 | 67 | 282 | 0.0 | 2.0 | 0.00 | 0.00 | 0.00 | 75 | 993.4 |
| 20260506151055 | 67 | 282 | 0.0 | 2.0 | 0.00 | 0.00 | 0.00 | 75 | 993.4 |
| 20260506150549 | 67 | 282 | 0.0 | 2.0 | 0.00 | 0.00 | 0.00 | 76 | 993.4 |
| 20260506150043 | 67 | 282 | 0.0 | 2.0 | 0.00 | 0.00 | 0.00 | 75 | 993.3 |
| 20260506145537 | 67 | 282 | 0.0 | 2.0 | 0.00 | 0.00 | 0.00 | 75 | 993.3 |
| 20260506145031 | 67 | 294 | 0.0 | 2.0 | 0.00 | 0.00 | 0.00 | 75 | 993.2 |
| 20260506144525 | 67 | 294 | 0.0 | 2.0 | 0.00 | 0.00 | 0.00 | 76 | 993.2 |
| 20260506144019 | 67 | 294 | 0.0 | 4.0 | 0.00 | 0.00 | 0.00 | 75 | 993.4 |
| 20260506143513 | 67 | 294 | 1.0 | 4.0 | 0.00 | 0.00 | 0.00 | 74 | 993.5 |
| 20260506143007 | 67 | 280 | 1.0 | 3.0 | 0.00 | 0.00 | 0.00 | 74 | 993.4 |
| 20260506142501 | 67 | 280 | 0.0 | 2.0 | 0.00 | 0.00 | 0.00 | 75 | 993.3 |
| 20260506141954 | 67 | 247 | 0.0 | 0.0 | 0.00 | 0.00 | 0.00 | 76 | 993.1 |
| 20260506141449 | 67 | 247 | 0.0 | 0.0 | 0.00 | 0.00 | 0.00 | 77 | 993.2 |
| 20260506140942 | 67 | 246 | 0.0 | 0.0 | 0.00 | 0.00 | 0.00 | 77 | 993.2 |
| 20260506140437 | 66 | 94 | 0.0 | 0.0 | 0.00 | 0.00 | 0.00 | 78 | 993.2 |
| 20260506135931 | 65 | 94 | 0.0 | 0.0 | 0.00 | 0.00 | 0.00 | 80 | 993.2 |
| 20260506135425 | 65 | 94 | 0.0 | 0.0 | 0.00 | 0.00 | 0.00 | 81 | 993.1 |
| 20260506134919 | 64 | 93 | 0.0 | 0.0 | 0.00 | 0.00 | 0.00 | 82 | 993.1 |
| 20260506134413 | 64 | 105 | 0.0 | 0.0 | 0.00 | 0.00 | 0.00 | 82 | 993.2 |
| 20260506133907 | 63 | 105 | 0.0 | 0.0 | 0.00 | 0.00 | 0.00 | 83 | 993.3 |
| 20260506133401 | 63 | 105 | 0.0 | 0.0 | 0.00 | 0.00 | 0.00 | 83 | 993.3 |
| 20260506131843 | 63 | 107 | 0.0 | 0.0 | 0.00 | 0.00 | 0.00 | 83 | 993.6 |
| 20260506130831 | 62 | 107 | 0.0 | 0.0 | 0.00 | 0.00 | 0.00 | 83 | 993.9 |
| 20260506130325 | 62 | 107 | 0.0 | 0.0 | 0.00 | 0.00 | 0.00 | 83 | 993.9 |
| 20260506125819 | 62 | 107 | 0.0 | 0.0 | 0.00 | 0.00 | 0.00 | 83 | 993.8 |
| 20260506125312 | 62 | 107 | 0.0 | 0.0 | 0.00 | 0.00 | 0.00 | 83 | 993.8 |
| 20260506124812 | 62 | 107 | 0.0 | 0.0 | 0.00 | 0.00 | 0.00 | 83 | 993.8 |
| 20260506124308 | 62 | 107 | 0.0 | 0.0 | 0.00 | 0.00 | 0.00 | 83 | 993.8 |
| 20260506123807 | 62 | 107 | 0.0 | 0.0 | 0.00 | 0.00 | 0.00 | 83 | 993.9 |
| 20260506122807 | 61 | 107 | 0.0 | 0.0 | 0.00 | 0.00 | 0.00 | 85 | 993.8 |
| 20260506122306 | 61 | 107 | 0.0 | 0.0 | 0.00 | 0.00 | 0.00 | 85 | 993.6 |
| 20260506121806 | 60 | 107 | 0.0 | 0.0 | 0.00 | 0.00 | 0.00 | 85 | 993.7 |
| 20260506121306 | 60 | 107 | 0.0 | 0.0 | 0.00 | 0.00 | 0.00 | 85 | 993.8 |
| 20260506120306 | 60 | 107 | 0.0 | 0.0 | 0.00 | 0.00 | 0.00 | 86 | 993.9 |
| 20260506115804 | 59 | 107 | 0.0 | 0.0 | 0.00 | 0.00 | 0.00 | 86 | 993.8 |
| 20260506115306 | 59 | 107 | 0.0 | 0.0 | 0.00 | 0.00 | 0.00 | 86 | 994.0 |
| 20260506114800 | 59 | 107 | 0.0 | 0.0 | 0.00 | 0.00 | 0.00 | 87 | 994.0 |
| 20260506114256 | 58 | 107 | 0.0 | 0.0 | 0.00 | 0.00 | 0.00 | 87 | 994.0 |
| 20260506113757 | 58 | 107 | 0.0 | 0.0 | 0.00 | 0.00 | 0.00 | 87 | 994.0 |
| 20260506113254 | 58 | 107 | 0.0 | 0.0 | 0.00 | 0.00 | 0.00 | 87 | 994.1 |
| 20260506112757 | 57 | 107 | 0.0 | 0.0 | 0.00 | 0.00 | 0.00 | 87 | 994.1 |
| 20260506112252 | 57 | 107 | 0.0 | 0.0 | 0.00 | 0.00 | 0.00 | 88 | 994.1 |
| 20260506111250 | 56 | 107 | 0.0 | 0.0 | 0.00 | 0.00 | 0.00 | 88 | 994.2 |
| 20260506110750 | 56 | 107 | 0.0 | 0.0 | 0.00 | 0.00 | 0.00 | 87 | 994.1 |
| 20260506105750 | 56 | 107 | 0.0 | 0.0 | 0.00 | 0.00 | 0.00 | 87 | 994.1 |
| 20260506105252 | 56 | 107 | 0.0 | 0.0 | 0.00 | 0.00 | 0.00 | 87 | 994.0 |
| 20260506104751 | 56 | 107 | 0.0 | 0.0 | 0.00 | 0.00 | 0.00 | 87 | 994.0 |
| 20260506104252 | 55 | 107 | 0.0 | 0.0 | 0.00 | 0.00 | 0.00 | 87 | 994.0 |
| 20260506103751 | 55 | 107 | 0.0 | 0.0 | 0.00 | 0.00 | 0.00 | 87 | 994.2 |
| 20260506103251 | 55 | 107 | 0.0 | 0.0 | 0.00 | 0.00 | 0.00 | 87 | 994.2 |
| 20260506102750 | 55 | 107 | 0.0 | 0.0 | 0.00 | 0.00 | 0.00 | 87 | 994.0 |
| 20260506102250 | 55 | 107 | 0.0 | 0.0 | 0.00 | 0.00 | 0.00 | 87 | 994.2 |
| 20260506101750 | 55 | 107 | 0.0 | 0.0 | 0.00 | 0.00 | 0.00 | 87 | 994.2 |
| 20260506101251 | 55 | 107 | 0.0 | 0.0 | 0.00 | 0.00 | 0.00 | 87 | 993.9 |
| 20260506100750 | 55 | 107 | 0.0 | 0.0 | 0.00 | 0.00 | 0.00 | 87 | 993.9 |
| 20260506100252 | 55 | 107 | 0.0 | 0.0 | 0.00 | 0.00 | 0.00 | 87 | 994.0 |
| 20260506095748 | 55 | 107 | 0.0 | 0.0 | 0.00 | 0.00 | 0.00 | 87 | 994.1 |
| 20260506095243 | 55 | 107 | 0.0 | 0.0 | 0.00 | 0.00 | 0.00 | 87 | 994.0 |
| 20260506094736 | 55 | 107 | 0.0 | 0.0 | 0.00 | 0.00 | 0.00 | 86 | 993.8 |
| 20260506093725 | 55 | 107 | 0.0 | 0.0 | 0.00 | 0.00 | 0.00 | 86 | 993.9 |
| 20260506093219 | 55 | 107 | 0.0 | 0.0 | 0.00 | 0.00 | 0.00 | 86 | 994.0 |
| 20260506092713 | 55 | 107 | 0.0 | 0.0 | 0.00 | 0.00 | 0.00 | 86 | 993.9 |
| 20260506092207 | 55 | 107 | 0.0 | 0.0 | 0.00 | 0.00 | 0.00 | 86 | 993.9 |
| 20260506091700 | 55 | 107 | 0.0 | 0.0 | 0.00 | 0.00 | 0.00 | 86 | 994.0 |
| 20260506091155 | 55 | 107 | 0.0 | 0.0 | 0.00 | 0.00 | 0.00 | 86 | 993.9 |
| 20260506085637 | 56 | 107 | 0.0 | 0.0 | 0.00 | 0.00 | 0.00 | 85 | 994.1 |
| 20260506085131 | 56 | 107 | 0.0 | 0.0 | 0.00 | 0.00 | 0.00 | 85 | 994.0 |
| 20260506084625 | 56 | 107 | 0.0 | 0.0 | 0.00 | 0.00 | 0.00 | 85 | 994.0 |
| 20260506084118 | 56 | 107 | 0.0 | 0.0 | 0.00 | 0.00 | 0.00 | 85 | 993.9 |
| 20260506083613 | 56 | 107 | 0.0 | 0.0 | 0.00 | 0.00 | 0.00 | 85 | 994.0 |
| 20260506082601 | 57 | 107 | 0.0 | 0.0 | 0.00 | 0.00 | 0.00 | 84 | 994.0 |
| 20260506081549 | 57 | 107 | 0.0 | 0.0 | 0.00 | 0.00 | 0.00 | 84 | 994.1 |
| 20260506081043 | 57 | 107 | 0.0 | 0.0 | 0.00 | 0.00 | 0.00 | 84 | 994.1 |
| 20260506080537 | 57 | 107 | 0.0 | 0.0 | 0.00 | 0.00 | 0.00 | 84 | 994.1 |
| 20260506073501 | 58 | 107 | 0.0 | 0.0 | 0.00 | 0.00 | 0.00 | 83 | 994.0 |
| 20260506072449 | 59 | 107 | 0.0 | 0.0 | 0.00 | 0.00 | 0.00 | 83 | 994.0 |
| 20260506071943 | 59 | 107 | 0.0 | 0.0 | 0.00 | 0.00 | 0.00 | 83 | 994.0 |
| 20260506070425 | 59 | 107 | 0.0 | 0.0 | 0.00 | 0.00 | 0.00 | 82 | 994.0 |
| 20260506062336 | 60 | 107 | 0.0 | 0.0 | 0.00 | 0.00 | 0.00 | 80 | 993.7 |
| 20260506061830 | 60 | 107 | 0.0 | 0.0 | 0.00 | 0.00 | 0.00 | 80 | 993.7 |
| 20260506061325 | 60 | 107 | 0.0 | 1.0 | 0.00 | 0.00 | 0.00 | 80 | 993.8 |
| 20260506060818 | 60 | 107 | 0.0 | 1.0 | 0.00 | 0.00 | 0.00 | 80 | 993.7 |
| 20260506060313 | 60 | 107 | 0.0 | 0.0 | 0.00 | 0.00 | 0.00 | 80 | 993.6 |
| 20260506051212 | 61 | 82 | 0.0 | 0.0 | 0.00 | 0.00 | 0.00 | 79 | 993.8 |
| 20260506050706 | 61 | 82 | 0.0 | 0.0 | 0.00 | 0.00 | 0.00 | 79 | 993.7 |
| 20260506050200 | 61 | 82 | 0.0 | 0.0 | 0.00 | 0.00 | 0.00 | 79 | 993.7 |
| 20260506044642 | 61 | 82 | 0.0 | 0.0 | 0.00 | 0.00 | 0.00 | 80 | 994.0 |
| 20260506044137 | 61 | 82 | 0.0 | 0.0 | 0.00 | 0.00 | 0.00 | 79 | 993.9 |
| 20260506043630 | 62 | 82 | 0.0 | 0.0 | 0.00 | 0.00 | 0.00 | 80 | 993.9 |
| 20260506043125 | 62 | 82 | 0.0 | 0.0 | 0.00 | 0.00 | 0.00 | 80 | 993.9 |